Weather History for Naples, Italy

Change the Weather History Date:

Wednesday, February 27, 2013

  Actual Average Record
Temperature  
Mean Temperature 47 °F -  
Max Temperature 57 °F 59 °F 64 °F (1998)
Min Temperature 37 °F 43 °F 33 °F (2001)
Degree Days  
Heating Degree Days 18    
Moisture  
Dew Point 38 °F    
Average Humidity 72    
Maximum Humidity 93    
Minimum Humidity 51    
Precipitation  
Precipitation 0.00 in 0.11 in - ()
Sea Level Pressure  
Sea Level Pressure 30.12 in    
Wind  
Wind Speed 3 mph ()    
Max Wind Speed 8 mph    
Max Gust Speed -    
Visibility 5.3 miles    
Events      
Averages and records for this station are not official NWS values.
T = Trace of Precipitation, MM = Missing Value Source: Averaged Metar Reports

Daily Weather History Graph

Daily Weather History Graph

Search for Another Location

Airport:

Trip Planner

Search our weather history database for the weather conditions in past years. The results will help you decide how hot, cold, wet, or windy it might be!

Date:

Astronomy

Feb. 27, 2013 Rise Set
Actual Time 6:39 AM CET 5:51 PM CET
Civil Twilight 6:12 AM CET 6:19 PM CET
Nautical Twilight 5:40 AM CET 6:51 PM CET
Astronomical Twilight 5:08 AM CET 7:22 PM CET
Moon 7:55 PM CET 7:04 AM CET
Length of Visible Light 12h 06m
Length of Day
11h 11m
Full, 97% of the Moon is Illuminated
Feb 27
Full
Mar 4
Last Quarter
Mar 11
New
Mar 19
First Quarter
Mar 27
Full

Hourly Weather History & Observations

Time (CET) Temp. Windchill Dew Point Humidity Pressure Visibility Wind Dir Wind Speed Gust Speed Precip Events Conditions
12:20 AM 44.6 °F - 39.2 °F 81% 30.09 in 5.0 mi West 2.3 mph - N/A   Mostly Cloudy
12:50 AM 44.6 °F - 41.0 °F 87% 30.09 in 5.0 mi West 2.3 mph - N/A   Mostly Cloudy
1:20 AM 44.6 °F - 39.2 °F 81% 30.09 in 5.0 mi Variable 2.3 mph - N/A   Mostly Cloudy
1:50 AM 46.4 °F 44.3 °F 41.0 °F 81% 30.09 in 5.0 mi NNW 4.6 mph - N/A   Mostly Cloudy
2:20 AM 44.6 °F 42.2 °F 39.2 °F 81% 30.09 in 5.0 mi North 4.6 mph - N/A   Mostly Cloudy
2:50 AM 42.8 °F - 39.2 °F 87% 30.09 in 5.0 mi Variable 2.3 mph - N/A   Mostly Cloudy
3:50 AM 42.8 °F - 39.2 °F 87% 30.09 in 5.0 mi Variable 2.3 mph - N/A   Mostly Cloudy
4:20 AM 42.8 °F - 39.2 °F 87% 30.09 in 5.0 mi Calm Calm - N/A   Mostly Cloudy
4:50 AM 41.0 °F - 37.4 °F 87% 30.09 in 5.0 mi Variable 2.3 mph - N/A   Mostly Cloudy
5:20 AM 41.0 °F 39.0 °F 37.4 °F 87% 30.09 in 5.0 mi NNE 3.5 mph - N/A   Mostly Cloudy
5:50 AM 39.2 °F - 35.6 °F 87% 30.09 in 5.0 mi Variable 2.3 mph - N/A   Mostly Cloudy
6:20 AM 37.4 °F - 33.8 °F 87% 30.09 in 5.0 mi NNW 2.3 mph - N/A   Mostly Cloudy
6:50 AM 39.2 °F 37.0 °F 37.4 °F 93% 30.09 in 5.0 mi North 3.5 mph - N/A   Unknown
7:20 AM 41.0 °F 39.0 °F 37.4 °F 87% 30.12 in 5.0 mi North 3.5 mph - N/A   Unknown
7:50 AM 42.8 °F 41.1 °F 39.2 °F 87% 30.12 in 5.0 mi North 3.5 mph - N/A   Unknown
8:20 AM 44.6 °F 43.1 °F 39.2 °F 81% 30.12 in 5.0 mi NNE 3.5 mph - N/A   Unknown
8:50 AM 46.4 °F 45.2 °F 39.2 °F 76% 30.12 in 5.0 mi NNE 3.5 mph - N/A   Unknown
9:20 AM 50.0 °F - 39.2 °F 66% 30.12 in 5.0 mi NE 3.5 mph - N/A   Unknown
9:50 AM 51.8 °F - 41.0 °F 67% 30.12 in 5.0 mi ENE 3.5 mph - N/A   Unknown
10:20 AM 51.8 °F - 41.0 °F 67% 30.12 in 5.0 mi NNE 3.5 mph - N/A   Unknown
10:50 AM 51.8 °F - 41.0 °F 67% 30.15 in 5.0 mi NE 3.5 mph - N/A   Unknown
11:20 AM 53.6 °F - 39.2 °F 58% 30.15 in 6.2 mi NNE 3.5 mph - N/A   Partly Cloudy
11:50 AM 53.6 °F - 37.4 °F 54% 30.12 in 6.2 mi Variable 3.5 mph - N/A   Partly Cloudy
12:20 PM 55.4 °F - 37.4 °F 51% 30.12 in 6.2 mi Variable 4.6 mph - N/A   Partly Cloudy
12:50 PM 53.6 °F - 41.0 °F 62% 30.12 in 6.2 mi WSW 4.6 mph - N/A   Partly Cloudy
1:20 PM 55.4 °F - 41.0 °F 58% 30.12 in 6.2 mi SW 4.6 mph - N/A   Scattered Clouds
1:50 PM 55.4 °F - 42.8 °F 63% 30.09 in 6.2 mi SSW 6.9 mph - N/A   Scattered Clouds
2:20 PM 57.2 °F - 42.8 °F 59% 30.09 in 6.2 mi South 4.6 mph - N/A   Scattered Clouds
2:50 PM 55.4 °F - 41.0 °F 58% 30.09 in 6.2 mi South 6.9 mph - N/A   Scattered Clouds
3:20 PM 55.4 °F - 39.2 °F 54% 30.09 in 6.2 mi SSW 6.9 mph - N/A   Scattered Clouds
3:50 PM 55.4 °F - 37.4 °F 51% 30.12 in - West 5.8 mph - N/A   Clear
4:20 PM 55.4 °F - 37.4 °F 51% 30.12 in - West 8.1 mph - N/A   Clear
4:50 PM 53.6 °F - 35.6 °F 51% 30.12 in - West 8.1 mph - N/A   Clear
5:20 PM 53.6 °F - 37.4 °F 54% 30.12 in - West 8.1 mph - N/A   Clear
5:50 PM 51.8 °F - 37.4 °F 58% 30.12 in - WNW 5.8 mph - N/A   Clear
6:20 PM 50.0 °F - 37.4 °F 62% 30.15 in - West 4.6 mph - N/A   Clear
6:50 PM 50.0 °F - 37.4 °F 62% 30.15 in - Variable 2.3 mph - N/A   Clear
7:20 PM 50.0 °F - 37.4 °F 62% 30.15 in - Variable 1.2 mph - N/A   Clear
7:50 PM 48.2 °F - 37.4 °F 66% 30.15 in - Calm Calm - N/A   Clear
8:50 PM 44.6 °F - 37.4 °F 76% 30.15 in - ENE 2.3 mph - N/A   Clear
9:20 PM 44.6 °F - 37.4 °F 76% 30.18 in - Variable 1.2 mph - N/A   Clear
9:50 PM 42.8 °F - 37.4 °F 81% 30.18 in - Calm Calm - N/A   Clear
10:20 PM 42.8 °F - 37.4 °F 81% 30.18 in - Variable 1.2 mph - N/A   Clear
10:50 PM 42.8 °F - 35.6 °F 76% 30.18 in - Variable 2.3 mph - N/A   Clear
11:20 PM 42.8 °F - 35.6 °F 76% 30.18 in 5.0 mi Variable 2.3 mph - N/A   Unknown
11:50 PM 41.0 °F 39.0 °F 35.6 °F 81% 30.18 in 5.0 mi North 3.5 mph - N/A   Unknown